User: anonymous   Login
Location: Unspecified
(0.0000°N, 0.0000°E)
Time: 18:23:19
(UTC+00:00)
Language:

FLOCK 4G 3 - Orbit

View from above orbital plane
View from above orbital plane
View from above satellite
View from above satellite

Ground track
Ground track

The orbit is defined by the following mean orbital elements,

1 62639U          26145.15628713 +.00000000 +00000-0 +37601-3 0 00000
2 62639  97.4026 227.2784 0003412  52.8236 307.3315 15.28814728    02
Epoch (UTC): 25 May 2026 03:45:03
Eccentricity: 0.0003412
inclination: 97.4026°
perigee height: 477 km
apogee height: 482 km
right ascension of ascending node: 227.2784°
argument of perigee: 52.8236°
revolutions per day: 15.28814728
mean anomaly at epoch: 307.3315°

The dashed part of the orbit path shows where the satellite is in the earth's shadow,  

DLR